
4:00:02 PM 521 Tuesday, March 17, 2020  Message :- Start Log.....!!!

windowsName : Windows 10 Enterprise
version : 6.3
build : 18362
Product ID : 1814
64 Bit operating system? : Yes
===========================================Start==========================================
Caption : Intel64 Family 6 Model 142 Stepping 9
CreationClassName : Win32_Processor
CurrentClockSpeed : 2600
CurrentVoltage : 8
Manufacturer : GenuineIntel
MaxClockSpeed : 2701
Name : Intel(R) Core(TM) i5-7200U CPU @ 2.50GHz
NumberOfCores : 2
NumberOfLogicalProcessors : 4
PowerManagementSupported : False
Status : OK
=========================================END============================================

15:24:56 583 19 March 2020  Message :- Start Log.....!!!

15:24:57 616 19 March 2020  Message :- Save call Start

15:24:58 179 19 March 2020  Message :- Start Log.....!!!

15:24:58 186 19 March 2020  Message :- Zip Start AD

15:24:58 375 19 March 2020  Message :- Zip End

15:25:00 62 19 March 2020  Message :- get Download paramenter 1st time

15:25:00 556 19 March 2020  Message :- start vishal task

15:25:01 467 19 March 2020  Message :- end vishal task

15:25:01 496 19 March 2020  Message :- first time download

15:25:01 511 19 March 2020  Message :-  Done version

15:25:01 511 19 March 2020  Message :-  start Port

15:25:01 527 19 March 2020  Message :-  Got Port

15:25:01 542 19 March 2020  Message :- start opening port

15:25:01 542 19 March 2020  Message :- port open 

15:25:01 542 19 March 2020  Message :- Done ctor, start event instialize

15:25:01 542 19 March 2020  Message :-  open call

15:25:01 558 19 March 2020  Message :- close hota open kela done 

15:25:01 558 19 March 2020  Message :-  open call end ,  start Port Done in PP3 class

15:25:01 596 19 March 2020  Message :-  sent 1st

15:25:01 812 19 March 2020  Message :-  Got 1

15:25:01 959 19 March 2020  Message :-  started sending Application

15:25:02 43 19 March 2020  Message :- 2st cha response 221

15:25:02 297 19 March 2020  Message :- Project cha response 221 Completed :) 

15:25:02 323 19 March 2020  Message :- port Exist and it is Closed

15:25:02 339 19 March 2020  Message :- End 100%

15:25:50 965 19 March 2020  Message :- Save call Start

15:25:51 451 19 March 2020  Message :- Start Log.....!!!

15:25:51 451 19 March 2020  Message :- Zip Start AD

15:25:51 520 19 March 2020  Message :- Zip End

15:25:53 587 19 March 2020  Message :- get Download paramenter 1st time

15:25:54 4 19 March 2020  Message :- start vishal task

15:25:54 712 19 March 2020  Message :- end vishal task

15:25:54 747 19 March 2020  Message :- first time download

15:25:54 756 19 March 2020  Message :-  Done version

15:25:54 764 19 March 2020  Message :-  start Port

15:25:54 783 19 March 2020  Message :-  Got Port

15:25:54 783 19 March 2020  Message :- start opening port

15:25:54 783 19 March 2020  Message :- port open 

15:25:54 799 19 March 2020  Message :- Done ctor, start event instialize

15:25:54 799 19 March 2020  Message :-  open call

15:25:54 816 19 March 2020  Message :- close hota open kela done 

15:25:54 818 19 March 2020  Message :-  open call end ,  start Port Done in PP3 class

15:25:54 865 19 March 2020  Message :-  sent 1st

15:25:55 83 19 March 2020  Message :-  Got 1

15:25:55 239 19 March 2020  Message :- Start 0%

15:25:55 250 19 March 2020  Message :- pathvli ek

15:25:55 256 19 March 2020  Message :- 1st cha response 221

15:25:55 330 19 March 2020  Message :- 2st cha response 221

15:25:55 593 19 March 2020  Message :- Project cha response 221 Completed :) 

15:25:55 678 19 March 2020  Message :- port Exist and it is Closed

15:25:55 678 19 March 2020  Message :- End 100%

15:27:35 916 19 March 2020  Message :- Start Log.....!!!

15:27:37 606 19 March 2020  Message :- Save call Start

15:27:38 69 19 March 2020  Message :- Start Log.....!!!

15:27:38 69 19 March 2020  Message :- Zip Start AD

15:27:38 149 19 March 2020  Message :- Zip End

15:27:40 373 19 March 2020  Message :- get Download paramenter 1st time

15:27:40 796 19 March 2020  Message :- start vishal task

15:27:41 415 19 March 2020  Message :- end vishal task

15:27:41 462 19 March 2020  Message :- first time download

15:27:41 462 19 March 2020  Message :-  Done version

15:27:41 462 19 March 2020  Message :-  start Port

15:27:41 500 19 March 2020  Message :-  Got Port

15:27:41 500 19 March 2020  Message :- start opening port

15:27:41 515 19 March 2020  Message :- port open 

15:27:41 515 19 March 2020  Message :- Done ctor, start event instialize

15:27:41 515 19 March 2020  Message :-  open call

15:27:41 531 19 March 2020  Message :- close hota open kela done 

15:27:41 547 19 March 2020  Message :-  open call end ,  start Port Done in PP3 class

15:27:41 600 19 March 2020  Message :-  sent 1st

15:27:41 817 19 March 2020  Message :-  Got 1

15:27:41 980 19 March 2020  Message :-  started sending Application

15:27:42 64 19 March 2020  Message :- 2st cha response 221

15:27:42 318 19 March 2020  Message :- Project cha response 221 Completed :) 

15:27:42 403 19 March 2020  Message :- port Exist and it is Closed

15:27:42 403 19 March 2020  Message :- End 100%

15:52:31 773 19 March 2020  Message :- Start Log.....!!!

15:54:30 738 19 March 2020  Message :- Start Log.....!!!

15:54:36 476 19 March 2020  Message :- Save call Start

15:54:37 7 19 March 2020  Message :- Start Log.....!!!

15:54:37 14 19 March 2020  Message :- Zip Start AD

15:54:37 76 19 March 2020  Message :- Zip End

15:56:34 271 19 March 2020  Message :- Start Log.....!!!

15:58:53 517 19 March 2020  Message :- Start Log.....!!!

15:58:55 799 19 March 2020  Message :- Save call Start

15:58:56 338 19 March 2020  Message :- Start Log.....!!!

15:58:56 354 19 March 2020  Message :- Zip Start AD

15:58:56 423 19 March 2020  Message :- Zip End

15:58:59 494 19 March 2020  Message :- get Download paramenter 1st time

15:58:59 933 19 March 2020  Message :- start vishal task

15:59:00 713 19 March 2020  Message :- end vishal task

15:59:00 735 19 March 2020  Message :- first time download

15:59:00 751 19 March 2020  Message :-  Done version

15:59:00 751 19 March 2020  Message :-  start Port

15:59:00 782 19 March 2020  Message :-  Got Port

15:59:00 782 19 March 2020  Message :- start opening port

15:59:00 782 19 March 2020  Message :- port open 

15:59:00 797 19 March 2020  Message :- Done ctor, start event instialize

15:59:00 797 19 March 2020  Message :-  open call

15:59:00 797 19 March 2020  Message :- close hota open kela done 

15:59:00 813 19 March 2020  Message :-  open call end ,  start Port Done in PP3 class

15:59:00 835 19 March 2020  Message :-  sent 1st

15:59:01 67 19 March 2020  Message :-  Got 1

15:59:01 238 19 March 2020  Message :- Start 0%

15:59:01 254 19 March 2020  Message :- pathvli ek

15:59:01 263 19 March 2020  Message :- 1st cha response 221

15:59:01 327 19 March 2020  Message :- 2st cha response 221

15:59:01 584 19 March 2020  Message :- Project cha response 221 Completed :) 

15:59:01 669 19 March 2020  Message :- port Exist and it is Closed

15:59:01 669 19 March 2020  Message :- End 100%

16:00:54 746 19 March 2020  Message :- Save call Start

16:00:55 356 19 March 2020  Message :- Start Log.....!!!

16:00:55 356 19 March 2020  Message :- Zip Start AD

16:00:55 425 19 March 2020  Message :- Zip End

16:00:57 122 19 March 2020  Message :- get Download paramenter 1st time

16:00:57 507 19 March 2020  Message :- start vishal task

16:00:58 253 19 March 2020  Message :- end vishal task

16:00:58 283 19 March 2020  Message :- first time download

16:00:58 287 19 March 2020  Message :-  Done version

16:00:58 292 19 March 2020  Message :-  start Port

16:00:58 308 19 March 2020  Message :-  Got Port

16:00:58 308 19 March 2020  Message :- start opening port

16:00:58 308 19 March 2020  Message :- port open 

16:00:58 324 19 March 2020  Message :- Done ctor, start event instialize

16:00:58 332 19 March 2020  Message :-  open call

16:00:58 332 19 March 2020  Message :- close hota open kela done 

16:00:58 347 19 March 2020  Message :-  open call end ,  start Port Done in PP3 class

16:00:58 379 19 March 2020  Message :-  sent 1st

16:00:58 595 19 March 2020  Message :-  Got 1

16:00:58 764 19 March 2020  Message :-  started sending Application

16:00:58 764 19 March 2020  Message :- 1st cha response 221

16:00:58 849 19 March 2020  Message :- 2st cha response 221

16:00:59 134 19 March 2020  Message :- Project cha response 221 Completed :) 

16:00:59 210 19 March 2020  Message :- port Exist and it is Closed

16:00:59 211 19 March 2020  Message :- End 100%

16:01:37 13 19 March 2020  Message :- Save call Start

16:01:37 614 19 March 2020  Message :- Start Log.....!!!

16:01:37 630 19 March 2020  Message :- Zip Start AD

16:01:37 683 19 March 2020  Message :- Zip End

16:01:40 122 19 March 2020  Message :- get Download paramenter 1st time

16:01:40 585 19 March 2020  Message :- start vishal task

16:01:41 355 19 March 2020  Message :- end vishal task

16:01:41 386 19 March 2020  Message :- first time download

16:01:41 386 19 March 2020  Message :-  Done version

16:01:41 386 19 March 2020  Message :-  start Port

16:01:41 417 19 March 2020  Message :-  Got Port

16:01:41 417 19 March 2020  Message :- start opening port

16:01:41 417 19 March 2020  Message :- port open 

16:01:41 417 19 March 2020  Message :- Done ctor, start event instialize

16:01:41 433 19 March 2020  Message :-  open call

16:01:41 439 19 March 2020  Message :- close hota open kela done 

16:01:41 439 19 March 2020  Message :-  open call end ,  start Port Done in PP3 class

16:01:41 486 19 March 2020  Message :-  sent 1st

16:01:41 702 19 March 2020  Message :-  Got 1

16:01:41 871 19 March 2020  Message :-  started sending Application

16:01:41 956 19 March 2020  Message :- 2st cha response 221

16:01:42 231 19 March 2020  Message :- Project cha response 221 Completed :) 

16:01:42 284 19 March 2020  Message :- port Exist and it is Closed

16:01:42 290 19 March 2020  Message :- End 100%

16:08:17 946 19 March 2020  Message :- Start Log.....!!!

16:08:26 238 19 March 2020  Message :- Save call Start

16:08:26 799 19 March 2020  Message :- Start Log.....!!!

16:08:26 799 19 March 2020  Message :- Zip Start AD

16:08:26 852 19 March 2020  Message :- Zip End

16:08:29 520 19 March 2020  Message :- get Download paramenter 1st time

16:08:30 48 19 March 2020  Message :- start vishal task

16:08:30 866 19 March 2020  Message :- end vishal task

16:08:30 897 19 March 2020  Message :- first time download

16:08:30 897 19 March 2020  Message :-  Done version

16:08:30 897 19 March 2020  Message :-  start Port

16:08:30 928 19 March 2020  Message :-  Got Port

16:08:30 928 19 March 2020  Message :- start opening port

16:08:30 928 19 March 2020  Message :- port open 

16:08:30 944 19 March 2020  Message :- Done ctor, start event instialize

16:08:30 951 19 March 2020  Message :-  open call

16:08:30 966 19 March 2020  Message :- close hota open kela done 

16:08:30 966 19 March 2020  Message :-  open call end ,  start Port Done in PP3 class

16:08:30 997 19 March 2020  Message :-  sent 1st

16:08:31 234 19 March 2020  Message :-  Got 1

16:08:31 383 19 March 2020  Message :-  started sending Application

16:08:31 456 19 March 2020  Message :- 2st cha response 221

16:08:31 738 19 March 2020  Message :- Project cha response 221 Completed :) 

16:08:31 795 19 March 2020  Message :- port Exist and it is Closed

16:08:31 802 19 March 2020  Message :- End 100%

16:12:18 567 19 March 2020  Message :- Start Log.....!!!

16:12:20 19 19 March 2020  Message :- Save call Start

16:12:20 521 19 March 2020  Message :- Start Log.....!!!

16:12:20 521 19 March 2020  Message :- Zip Start AD

16:12:20 589 19 March 2020  Message :- Zip End

16:12:22 94 19 March 2020  Message :- get Download paramenter 1st time

16:12:22 548 19 March 2020  Message :- start vishal task

16:12:23 631 19 March 2020  Message :- end vishal task

16:12:23 700 19 March 2020  Message :- first time download

16:12:23 700 19 March 2020  Message :-  Done version

16:12:23 715 19 March 2020  Message :-  start Port

16:12:23 731 19 March 2020  Message :-  Got Port

16:12:23 731 19 March 2020  Message :- start opening port

16:12:23 747 19 March 2020  Message :- port open 

16:12:23 753 19 March 2020  Message :- Done ctor, start event instialize

16:12:23 753 19 March 2020  Message :-  open call

16:12:23 769 19 March 2020  Message :- close hota open kela done 

16:12:23 769 19 March 2020  Message :-  open call end ,  start Port Done in PP3 class

16:12:23 800 19 March 2020  Message :-  sent 1st

16:12:24 32 19 March 2020  Message :-  Got 1

16:12:24 170 19 March 2020  Message :-  started sending Application

16:12:24 248 19 March 2020  Message :- 2st cha response 221

16:12:24 533 19 March 2020  Message :- Project cha response 221 Completed :) 

16:12:24 599 19 March 2020  Message :- port Exist and it is Closed

16:12:24 614 19 March 2020  Message :- End 100%

16:14:10 984 19 March 2020  Message :- Start Log.....!!!

16:14:12 444 19 March 2020  Message :- Save call Start

16:14:12 961 19 March 2020  Message :- Start Log.....!!!

16:14:12 961 19 March 2020  Message :- Zip Start AD

16:14:13 37 19 March 2020  Message :- Zip End

16:14:16 320 19 March 2020  Message :- get Download paramenter 1st time

16:14:16 779 19 March 2020  Message :- start vishal task

16:14:17 813 19 March 2020  Message :- end vishal task

16:14:17 851 19 March 2020  Message :- first time download

16:14:17 851 19 March 2020  Message :-  Done version

16:14:17 866 19 March 2020  Message :-  start Port

16:14:17 885 19 March 2020  Message :-  Got Port

16:14:17 885 19 March 2020  Message :- start opening port

16:14:17 901 19 March 2020  Message :- port open 

16:14:17 901 19 March 2020  Message :- Done ctor, start event instialize

16:14:17 901 19 March 2020  Message :-  open call

16:14:17 916 19 March 2020  Message :- close hota open kela done 

16:14:17 916 19 March 2020  Message :-  open call end ,  start Port Done in PP3 class

16:14:17 966 19 March 2020  Message :-  sent 1st

16:14:18 175 19 March 2020  Message :-  Got 1

16:14:18 352 19 March 2020  Message :-  started sending Application

16:14:18 452 19 March 2020  Message :- 2st cha response 221

16:14:18 793 19 March 2020  Message :- Project cha response 221 Completed :) 

16:14:18 822 19 March 2020  Message :- port Exist and it is Closed

16:14:18 837 19 March 2020  Message :- End 100%

16:15:53 259 19 March 2020  Message :- Start Log.....!!!

16:15:56 212 19 March 2020  Message :- Save call Start

16:15:56 741 19 March 2020  Message :- Start Log.....!!!

16:15:56 741 19 March 2020  Message :- Zip Start AD

16:15:56 825 19 March 2020  Message :- Zip End

16:15:58 206 19 March 2020  Message :- get Download paramenter 1st time

16:15:58 621 19 March 2020  Message :- start vishal task

16:15:59 576 19 March 2020  Message :- end vishal task

16:15:59 608 19 March 2020  Message :- first time download

16:15:59 608 19 March 2020  Message :-  Done version

16:15:59 608 19 March 2020  Message :-  start Port

16:15:59 630 19 March 2020  Message :-  Got Port

16:15:59 630 19 March 2020  Message :- start opening port

16:15:59 645 19 March 2020  Message :- port open 

16:15:59 661 19 March 2020  Message :- Done ctor, start event instialize

16:15:59 661 19 March 2020  Message :-  open call

16:15:59 677 19 March 2020  Message :- close hota open kela done 

16:15:59 677 19 March 2020  Message :-  open call end ,  start Port Done in PP3 class

16:15:59 730 19 March 2020  Message :-  sent 1st

16:15:59 978 19 March 2020  Message :-  Got 1

16:16:00 149 19 March 2020  Message :- Start 0%

16:16:00 169 19 March 2020  Message :- pathvli ek

16:16:00 185 19 March 2020  Message :- 1st cha response 221

16:16:00 252 19 March 2020  Message :- 2st cha response 221

16:16:00 590 19 March 2020  Message :- Project cha response 221 Completed :) 

16:16:00 693 19 March 2020  Message :- port Exist and it is Closed

16:16:00 702 19 March 2020  Message :- End 100%

16:17:31 270 19 March 2020  Message :- Save call Start

16:17:31 905 19 March 2020  Message :- Start Log.....!!!

16:17:31 909 19 March 2020  Message :- Zip Start AD

16:17:31 987 19 March 2020  Message :- Zip End

16:17:33 359 19 March 2020  Message :- get Download paramenter 1st time

16:17:33 828 19 March 2020  Message :- start vishal task

16:17:34 792 19 March 2020  Message :- end vishal task

16:17:34 823 19 March 2020  Message :- first time download

16:17:34 839 19 March 2020  Message :-  Done version

16:17:34 839 19 March 2020  Message :-  start Port

16:17:34 861 19 March 2020  Message :-  Got Port

16:17:34 861 19 March 2020  Message :- start opening port

16:17:34 861 19 March 2020  Message :- port open 

16:17:34 877 19 March 2020  Message :- Done ctor, start event instialize

16:17:34 877 19 March 2020  Message :-  open call

16:17:34 892 19 March 2020  Message :- close hota open kela done 

16:17:34 892 19 March 2020  Message :-  open call end ,  start Port Done in PP3 class

16:17:34 923 19 March 2020  Message :-  sent 1st

16:17:35 140 19 March 2020  Message :-  Got 1

16:17:35 309 19 March 2020  Message :-  started sending Application

16:17:35 325 19 March 2020  Message :- 1st cha response 221

16:17:35 391 19 March 2020  Message :- 2st cha response 221

16:17:35 723 19 March 2020  Message :- Project cha response 221 Completed :) 

16:17:35 775 19 March 2020  Message :- port Exist and it is Closed

16:17:35 781 19 March 2020  Message :- End 100%

16:19:14 449 19 March 2020  Message :- Save call Start

16:19:15 87 19 March 2020  Message :- Start Log.....!!!

16:19:15 87 19 March 2020  Message :- Zip Start AD

16:19:15 165 19 March 2020  Message :- Zip End

16:19:16 438 19 March 2020  Message :- get Download paramenter 1st time

16:19:16 854 19 March 2020  Message :- start vishal task

16:19:17 800 19 March 2020  Message :- end vishal task

16:19:17 832 19 March 2020  Message :- first time download

16:19:17 851 19 March 2020  Message :-  Done version

16:19:17 856 19 March 2020  Message :-  start Port

16:19:17 883 19 March 2020  Message :-  Got Port

16:19:17 892 19 March 2020  Message :- start opening port

16:19:17 900 19 March 2020  Message :- port open 

16:19:17 908 19 March 2020  Message :- Done ctor, start event instialize

16:19:17 918 19 March 2020  Message :-  open call

16:19:17 929 19 March 2020  Message :- close hota open kela done 

16:19:17 936 19 March 2020  Message :-  open call end ,  start Port Done in PP3 class

16:19:17 979 19 March 2020  Message :-  sent 1st

16:19:18 199 19 March 2020  Message :-  Got 1

16:19:18 336 19 March 2020  Message :- Start 0%

16:19:18 345 19 March 2020  Message :- pathvli ek

16:19:18 355 19 March 2020  Message :- 1st cha response 221

16:19:18 427 19 March 2020  Message :- 2st cha response 221

16:19:18 759 19 March 2020  Message :- Project cha response 221 Completed :) 

16:19:18 781 19 March 2020  Message :- port Exist and it is Closed

16:19:18 797 19 March 2020  Message :- End 100%

16:22:09 111 19 March 2020  Message :- Start Log.....!!!

16:22:10 86 19 March 2020  Message :- Save call Start

16:22:10 656 19 March 2020  Message :- Start Log.....!!!

16:22:10 665 19 March 2020  Message :- Zip Start AD

16:22:10 733 19 March 2020  Message :- Zip End

16:22:14 170 19 March 2020  Message :- get Download paramenter 1st time

16:22:14 589 19 March 2020  Message :- start vishal task

16:22:15 634 19 March 2020  Message :- end vishal task

16:22:15 682 19 March 2020  Message :- first time download

16:22:15 688 19 March 2020  Message :-  Done version

16:22:15 693 19 March 2020  Message :-  start Port

16:22:15 712 19 March 2020  Message :-  Got Port

16:22:15 721 19 March 2020  Message :- start opening port

16:22:15 730 19 March 2020  Message :- port open 

16:22:15 736 19 March 2020  Message :- Done ctor, start event instialize

16:22:15 742 19 March 2020  Message :-  open call

16:22:15 752 19 March 2020  Message :- close hota open kela done 

16:22:15 759 19 March 2020  Message :-  open call end ,  start Port Done in PP3 class

16:22:15 807 19 March 2020  Message :-  sent 1st

16:22:16 26 19 March 2020  Message :-  Got 1

16:22:16 190 19 March 2020  Message :- Start 0%

16:22:16 206 19 March 2020  Message :- pathvli ek

16:22:16 206 19 March 2020  Message :- 1st cha response 221

16:22:16 289 19 March 2020  Message :- 2st cha response 221

16:22:16 627 19 March 2020  Message :- Project cha response 221 Completed :) 

16:22:16 680 19 March 2020  Message :- port Exist and it is Closed

16:22:16 696 19 March 2020  Message :- End 100%

16:23:57 962 19 March 2020  Message :- Start Log.....!!!

16:24:15 185 19 March 2020  Message :- Save call Start

16:24:15 817 19 March 2020  Message :- Start Log.....!!!

16:24:15 825 19 March 2020  Message :- Zip Start AD

16:24:15 901 19 March 2020  Message :- Zip End

16:24:17 672 19 March 2020  Message :- get Download paramenter 1st time

16:24:18 136 19 March 2020  Message :- start vishal task

16:24:19 265 19 March 2020  Message :- end vishal task

16:24:19 298 19 March 2020  Message :- first time download

16:24:19 303 19 March 2020  Message :-  Done version

16:24:19 309 19 March 2020  Message :-  start Port

16:24:19 332 19 March 2020  Message :-  Got Port

16:24:19 338 19 March 2020  Message :- start opening port

16:24:19 344 19 March 2020  Message :- port open 

16:24:19 349 19 March 2020  Message :- Done ctor, start event instialize

16:24:19 355 19 March 2020  Message :-  open call

16:24:19 365 19 March 2020  Message :- close hota open kela done 

16:24:19 372 19 March 2020  Message :-  open call end ,  start Port Done in PP3 class

16:24:19 405 19 March 2020  Message :-  sent 1st

16:24:19 618 19 March 2020  Message :-  Got 1

16:24:19 763 19 March 2020  Message :- Start 0%

16:24:19 771 19 March 2020  Message :- pathvli ek

16:24:19 805 19 March 2020  Message :- 1st cha response 221

16:24:19 887 19 March 2020  Message :- 2st cha response 221

16:24:20 221 19 March 2020  Message :- Project cha response 221 Completed :) 

16:24:20 273 19 March 2020  Message :- port Exist and it is Closed

16:24:20 279 19 March 2020  Message :- End 100%

16:30:42 685 19 March 2020  Message :- Start Log.....!!!

16:31:00 846 19 March 2020  Message :- Start Log.....!!!

16:31:02 765 19 March 2020  Message :- Save call Start

16:31:03 298 19 March 2020  Message :- Start Log.....!!!

16:31:03 298 19 March 2020  Message :- Zip Start AD

16:31:03 367 19 March 2020  Message :- Zip End

16:31:04 828 19 March 2020  Message :- get Download paramenter 1st time

16:31:05 337 19 March 2020  Message :- start vishal task

16:31:06 399 19 March 2020  Message :- end vishal task

16:31:06 430 19 March 2020  Message :- first time download

16:31:06 446 19 March 2020  Message :-  Done version

16:31:06 452 19 March 2020  Message :-  start Port

16:31:06 468 19 March 2020  Message :-  Got Port

16:31:06 468 19 March 2020  Message :- start opening port

16:31:06 483 19 March 2020  Message :- port open 

16:31:06 483 19 March 2020  Message :- Done ctor, start event instialize

16:31:06 483 19 March 2020  Message :-  open call

16:31:06 499 19 March 2020  Message :- close hota open kela done 

16:31:06 515 19 March 2020  Message :-  open call end ,  start Port Done in PP3 class

16:31:06 546 19 March 2020  Message :-  sent 1st

16:31:06 758 19 March 2020  Message :-  Got 1

16:31:06 930 19 March 2020  Message :- Start 0%

16:31:06 944 19 March 2020  Message :- pathvli ek

16:31:06 954 19 March 2020  Message :- 1st cha response 221

16:31:07 20 19 March 2020  Message :- 2st cha response 221

16:31:07 356 19 March 2020  Message :- Project cha response 221 Completed :) 

16:31:07 434 19 March 2020  Message :- port Exist and it is Closed

16:31:07 449 19 March 2020  Message :- End 100%

windowsName : Windows 10 Enterprise
version : 6.3
build : 18362
Product ID : 1814
64 Bit operating system? : Yes
===========================================Start==========================================
Caption : Intel64 Family 6 Model 142 Stepping 9
CreationClassName : Win32_Processor
CurrentClockSpeed : 2600
CurrentVoltage : 8
Manufacturer : GenuineIntel
MaxClockSpeed : 2701
Name : Intel(R) Core(TM) i5-7200U CPU @ 2.50GHz
NumberOfCores : 2
NumberOfLogicalProcessors : 4
PowerManagementSupported : False
Status : OK
=========================================END============================================

16:38:31 381 19 March 2020  Message :- Start Log.....!!!

17:09:39 441 19 March 2020  Message :- Start Log.....!!!

17:09:42 167 19 March 2020  Message :- Save call Start

17:09:42 700 19 March 2020  Message :- Start Log.....!!!

17:09:42 700 19 March 2020  Message :- Zip Start AD

17:09:43 709 19 March 2020  Message :- Zip End

17:09:44 388 19 March 2020  Message :- get Download paramenter 1st time

17:09:44 854 19 March 2020  Message :- start vishal task

17:09:46 232 19 March 2020  Message :- end vishal task

17:09:46 264 19 March 2020  Message :- first time download

17:09:46 264 19 March 2020  Message :-  Done version

17:09:46 279 19 March 2020  Message :-  start Port

17:09:46 295 19 March 2020  Message :-  Got Port

17:09:46 310 19 March 2020  Message :- start opening port

17:09:46 310 19 March 2020  Message :- port open 

17:09:46 310 19 March 2020  Message :- Done ctor, start event instialize

17:09:46 326 19 March 2020  Message :-  open call

17:09:46 333 19 March 2020  Message :- close hota open kela done 

17:09:46 333 19 March 2020  Message :-  open call end ,  start Port Done in PP3 class

17:09:46 379 19 March 2020  Message :-  sent 1st

17:09:46 595 19 March 2020  Message :-  Got 1

17:09:46 749 19 March 2020  Message :-  started sending Application

17:09:47 66 19 March 2020  Message :- 2st cha response 221

17:09:47 482 19 March 2020  Message :- Project cha response 221 Completed :) 

17:09:47 551 19 March 2020  Message :- port Exist and it is Closed

17:09:47 551 19 March 2020  Message :- End 100%

17:10:13 869 19 March 2020  Message :- Start Log.....!!!

windowsName : Windows 10 Enterprise
version : 6.3
build : 18362
Product ID : 1814
64 Bit operating system? : Yes
===========================================Start==========================================
Caption : Intel64 Family 6 Model 142 Stepping 9
CreationClassName : Win32_Processor
CurrentClockSpeed : 2600
CurrentVoltage : 8
Manufacturer : GenuineIntel
MaxClockSpeed : 2701
Name : Intel(R) Core(TM) i5-7200U CPU @ 2.50GHz
NumberOfCores : 2
NumberOfLogicalProcessors : 4
PowerManagementSupported : False
Status : OK
=========================================END============================================

13:28:23 342 25 March 2020  Message :- Start Log.....!!!

13:28:31 462 25 March 2020  Message :- Save call Start

13:28:32 24 25 March 2020  Message :- Start Log.....!!!

13:28:32 33 25 March 2020  Message :- Zip Start AD

13:28:33 17 25 March 2020  Message :- Zip End

13:28:33 831 25 March 2020  Message :- get Download paramenter 1st time

13:28:34 320 25 March 2020  Message :- start vishal task

13:28:35 840 25 March 2020  Message :- end vishal task

13:28:35 878 25 March 2020  Message :- first time download

13:28:35 889 25 March 2020  Message :-  Done version

13:28:35 898 25 March 2020  Message :-  start Port

13:28:46 239 25 March 2020  Message :-  Got Port

13:28:46 246 25 March 2020  Message :- start opening port

13:28:46 252 25 March 2020  Message :- port open 

13:28:46 259 25 March 2020  Message :- Done ctor, start event instialize

13:28:46 266 25 March 2020  Message :-  open call

13:28:46 282 25 March 2020  Message :- close hota open kela done 

13:28:46 289 25 March 2020  Message :-  open call end ,  start Port Done in PP3 class

13:28:46 325 25 March 2020  Message :-  sent 1st

13:28:46 535 25 March 2020  Message :-  Got 1

13:28:46 665 25 March 2020  Message :-  started sending Application

13:28:46 672 25 March 2020  Message :- 1st cha response 221

13:28:46 994 25 March 2020  Message :- 2st cha response 221

13:28:47 407 25 March 2020  Message :- Project cha response 221 Completed :) 

13:28:47 437 25 March 2020  Message :- port Exist and it is Closed

13:28:47 443 25 March 2020  Message :- End 100%

14:29:50 93 25 March 2020  Message :- Start Log.....!!!
